Simultaneous Nadir Overpasses (SNOs) Predictions

Prediction of SNOs over PacNW region [( 10.00, 139.50) to ( 22.70, 165.60)] between AQUA and NPP Satellites:

Table of predicted SNOs over PacNW region for the next 30.0 days since TLE Epoch: 5/5/2017
Index Date (AQUA) Time (AQUA) AQUA Lat,Lon Date (NPP) Time (NPP) NPP Lat,Lon Distance(km) Time Diff (sec)
1 05/08/2017 15:09:55 22.59, 159.82 05/08/2017 15:10:50 23.18, 157.29 267.39 55
2 05/11/2017 03:31:43 22.66, 147.52 05/11/2017 03:28:14 26.69, 144.78 525.72 209
3 05/16/2017 15:59:15 22.60, 147.48 05/16/2017 16:01:34 23.26, 144.62 301.57 139
4 05/24/2017 15:09:42 22.60, 159.86 05/24/2017 15:10:51 23.20, 157.30 270.99 69
5 05/27/2017 03:31:29 22.68, 147.55 05/27/2017 03:27:59 25.80, 145.02 431.83 210
6 06/01/2017 15:59:00 22.61, 147.53 06/01/2017 16:01:35 23.24, 144.62 305.76 155




NCC Satellite Simultaneous Nadir Overpasses (SNOs) Prediction Service
